owner,sensor,date,latitude,longitude,vertical_datum,direction_of_sea_water_velocity,sea_water_speed,upward_sea_water_velocity,qcFlag 
WAVCIS,ioos:station:WAVCIS:CSI16:1,2009-12-01T00:00:00Z,29.4012,-89.0355,11.36,294.0,0.238,-99999.0,'11133222,11111222,99999999' 
WAVCIS,ioos:station:WAVCIS:CSI16:1,2009-12-01T01:00:00Z,29.4012,-89.0355,11.36,305.0,0.21,-99999.0,'11133222,11111222,99999999' 
WAVCIS,ioos:station:WAVCIS:CSI16:1,2009-12-01T02:00:00Z,29.4012,-89.0355,10.86,309.0,0.133,-99999.0,'11133222,11111222,99999999' 
WAVCIS,ioos:station:WAVCIS:CSI16:1,2009-12-01T03:00:00Z,29.4012,-89.0355,10.86,294.0,0.206,-99999.0,'11133222,11111222,99999999' 
WAVCIS,ioos:station:WAVCIS:CSI16:1,2009-12-01T04:00:00Z,29.4012,-89.0355,10.86,287.0,0.154,-99999.0,'11133222,11111222,99999999' 
WAVCIS,ioos:station:WAVCIS:CSI16:1,2009-12-01T05:00:00Z,29.4012,-89.0355,10.86,276.0,0.153,-99999.0,'11133222,11111222,99999999' 
WAVCIS,ioos:station:WAVCIS:CSI16:1,2009-12-01T06:00:00Z,29.4012,-89.0355,10.86,273.0,0.198,-99999.0,'11133222,11111222,99999999' 
WAVCIS,ioos:station:WAVCIS:CSI16:1,2009-12-01T07:00:00Z,29.4012,-89.0355,10.36,286.0,0.269,-99999.0,'11133222,11111222,99999999' 
WAVCIS,ioos:station:WAVCIS:CSI16:1,2009-12-01T08:00:00Z,29.4012,-89.0355,10.36,293.0,0.308,-99999.0,'11133222,11111222,99999999' 
WAVCIS,ioos:station:WAVCIS:CSI16:1,2009-12-01T09:00:00Z,29.4012,-89.0355,10.36,288.0,0.598,-99999.0,'11133222,11111222,99999999' 
WAVCIS,ioos:station:WAVCIS:CSI16:1,2009-12-01T10:00:00Z,29.4012,-89.0355,10.36,286.0,0.592,-99999.0,'11133222,11111222,99999999' 
WAVCIS,ioos:station:WAVCIS:CSI16:1,2009-12-01T11:00:00Z,29.4012,-89.0355,10.36,286.0,0.462,-99999.0,'11133222,11111222,99999999' 
WAVCIS,ioos:station:WAVCIS:CSI16:1,2009-12-01T12:00:00Z,29.4012,-89.0355,10.36,284.0,0.498,-99999.0,'11133222,11111222,99999999' 
WAVCIS,ioos:station:WAVCIS:CSI16:1,2009-12-01T13:00:00Z,29.4012,-89.0355,10.36,285.0,0.408,-99999.0,'11133222,11111222,99999999' 
WAVCIS,ioos:station:WAVCIS:CSI16:1,2009-12-01T14:00:00Z,29.4012,-89.0355,10.86,295.0,0.384,-99999.0,'11133222,11111222,99999999' 
WAVCIS,ioos:station:WAVCIS:CSI16:1,2009-12-01T15:00:00Z,29.4012,-89.0355,10.86,300.0,0.393,-99999.0,'11133222,11111222,99999999' 
WAVCIS,ioos:station:WAVCIS:CSI16:1,2009-12-01T16:00:00Z,29.4012,-89.0355,10.86,289.0,0.303,-99999.0,'11133222,11111222,99999999' 
WAVCIS,ioos:station:WAVCIS:CSI16:1,2009-12-01T17:00:00Z,29.4012,-89.0355,10.86,307.0,0.211,-99999.0,'11133222,11111222,99999999' 
WAVCIS,ioos:station:WAVCIS:CSI16:1,2009-12-01T18:00:00Z,29.4012,-89.0355,10.86,305.0,0.148,-99999.0,'11133222,11111222,99999999' 
WAVCIS,ioos:station:WAVCIS:CSI16:1,2009-12-01T19:00:00Z,29.4012,-89.0355,10.86,302.0,0.141,-99999.0,'11133222,11111222,99999999' 
WAVCIS,ioos:station:WAVCIS:CSI16:1,2009-12-01T20:00:00Z,29.4012,-89.0355,10.86,294.0,0.141,-99999.0,'11133222,11111222,99999999' 
WAVCIS,ioos:station:WAVCIS:CSI16:1,2009-12-01T21:00:00Z,29.4012,-89.0355,10.86,309.0,0.087,-99999.0,'11133222,11111222,99999999' 
WAVCIS,ioos:station:WAVCIS:CSI16:1,2009-12-01T22:00:00Z,29.4012,-89.0355,10.86,347.0,0.314,-99999.0,'11133222,11111222,99999999' 
WAVCIS,ioos:station:WAVCIS:CSI16:1,2009-12-01T23:00:00Z,29.4012,-89.0355,10.86,1.0,0.069,-99999.0,'11133222,11111222,99999999' 
WAVCIS,ioos:station:WAVCIS:CSI16:1,2009-12-02T00:00:00Z,29.4012,-89.0355,10.86,63.0,0.028,-99999.0,'11133222,11111222,99999999' 
WAVCIS,ioos:station:WAVCIS:CSI16:1,2009-12-02T01:00:00Z,29.4012,-89.0355,10.86,282.0,0.034,-99999.0,'11133222,11111222,99999999' 
WAVCIS,ioos:station:WAVCIS:CSI16:1,2009-12-02T02:00:00Z,29.4012,-89.0355,10.86,212.0,0.032,-99999.0,'11133222,11111222,99999999' 
WAVCIS,ioos:station:WAVCIS:CSI16:1,2009-12-02T03:00:00Z,29.4012,-89.0355,11.36,267.0,0.167,-99999.0,'11133222,11111222,99999999' 
WAVCIS,ioos:station:WAVCIS:CSI16:1,2009-12-02T04:00:00Z,29.4012,-89.0355,10.86,269.0,0.353,-99999.0,'11133222,11111222,99999999' 
WAVCIS,ioos:station:WAVCIS:CSI16:1,2009-12-02T05:00:00Z,29.4012,-89.0355,10.86,274.0,0.407,-99999.0,'11133222,11111222,99999999' 
WAVCIS,ioos:station:WAVCIS:CSI16:1,2009-12-02T06:00:00Z,29.4012,-89.0355,10.86,281.0,0.372,-99999.0,'11133222,11111222,99999999' 
WAVCIS,ioos:station:WAVCIS:CSI16:1,2009-12-02T07:00:00Z,29.4012,-89.0355,10.86,281.0,0.358,-99999.0,'11133222,11111222,99999999' 
WAVCIS,ioos:station:WAVCIS:CSI16:1,2009-12-02T08:00:00Z,29.4012,-89.0355,10.86,268.0,0.395,-99999.0,'11133222,11111222,99999999' 
WAVCIS,ioos:station:WAVCIS:CSI16:1,2009-12-02T09:00:00Z,29.4012,-89.0355,10.36,264.0,0.459,-99999.0,'11133222,11111222,99999999' 
WAVCIS,ioos:station:WAVCIS:CSI16:1,2009-12-02T10:00:00Z,29.4012,-89.0355,10.36,257.0,0.513,-99999.0,'11133222,11111222,99999999' 
WAVCIS,ioos:station:WAVCIS:CSI16:1,2009-12-02T11:00:00Z,29.4012,-89.0355,10.36,267.0,0.325,-99999.0,'11133222,11111222,99999999' 
WAVCIS,ioos:station:WAVCIS:CSI16:1,2009-12-02T12:00:00Z,29.4012,-89.0355,10.86,239.0,0.346,-99999.0,'11133222,11111222,99999999' 
WAVCIS,ioos:station:WAVCIS:CSI16:1,2009-12-02T13:00:00Z,29.4012,-89.0355,10.86,238.0,0.276,-99999.0,'11133222,11111222,99999999' 
WAVCIS,ioos:station:WAVCIS:CSI16:1,2009-12-02T14:00:00Z,29.4012,-89.0355,10.86,217.0,0.422,-99999.0,'11133222,11111222,99999999' 
WAVCIS,ioos:station:WAVCIS:CSI16:1,2009-12-02T15:00:00Z,29.4012,-89.0355,10.36,203.0,0.725,-99999.0,'11133222,11111222,99999999' 
WAVCIS,ioos:station:WAVCIS:CSI16:1,2009-12-02T16:00:00Z,29.4012,-89.0355,10.36,202.0,0.605,-99999.0,'11133222,11111222,99999999' 
WAVCIS,ioos:station:WAVCIS:CSI16:1,2009-12-02T17:00:00Z,29.4012,-89.0355,10.36,219.0,0.321,-99999.0,'11133222,11111222,99999999' 
WAVCIS,ioos:station:WAVCIS:CSI16:1,2009-12-02T18:00:00Z,29.4012,-89.0355,10.86,214.0,0.431,-99999.0,'11133222,11111222,99999999' 
WAVCIS,ioos:station:WAVCIS:CSI16:1,2009-12-02T19:00:00Z,29.4012,-89.0355,10.86,209.0,0.276,-99999.0,'11133222,11111222,99999999' 
WAVCIS,ioos:station:WAVCIS:CSI16:1,2009-12-02T20:00:00Z,29.4012,-89.0355,10.86,191.0,0.087,-99999.0,'11133222,11111222,99999999' 
WAVCIS,ioos:station:WAVCIS:CSI16:1,2009-12-02T21:00:00Z,29.4012,-89.0355,10.86,85.0,0.049,-99999.0,'11133222,11111222,99999999' 
WAVCIS,ioos:station:WAVCIS:CSI16:1,2009-12-02T22:00:00Z,29.4012,-89.0355,10.86,87.0,0.189,-99999.0,'11133222,11111222,99999999' 
WAVCIS,ioos:station:WAVCIS:CSI16:1,2009-12-02T23:00:00Z,29.4012,-89.0355,10.86,134.0,0.24,-99999.0,'11133222,11111222,99999999' 
WAVCIS,ioos:station:WAVCIS:CSI16:1,2009-12-03T00:00:00Z,29.4012,-89.0355,11.36,134.0,0.267,-99999.0,'11133222,11111222,99999999' 
WAVCIS,ioos:station:WAVCIS:CSI16:1,2009-12-03T01:00:00Z,29.4012,-89.0355,11.36,123.0,0.29,-99999.0,'11133222,11111222,99999999' 
WAVCIS,ioos:station:WAVCIS:CSI16:1,2009-12-03T02:00:00Z,29.4012,-89.0355,11.36,115.0,0.278,-99999.0,'11133222,11111222,99999999' 
WAVCIS,ioos:station:WAVCIS:CSI16:1,2009-12-03T03:00:00Z,29.4012,-89.0355,11.36,117.0,0.273,-99999.0,'11133222,11111222,99999999' 
WAVCIS,ioos:station:WAVCIS:CSI16:1,2009-12-03T04:00:00Z,29.4012,-89.0355,11.36,126.0,0.243,-99999.0,'11133222,11111222,99999999' 
WAVCIS,ioos:station:WAVCIS:CSI16:1,2009-12-03T05:00:00Z,29.4012,-89.0355,11.36,150.0,0.217,-99999.0,'11133222,11111222,99999999' 
WAVCIS,ioos:station:WAVCIS:CSI16:1,2009-12-03T06:00:00Z,29.4012,-89.0355,11.36,173.0,0.256,-99999.0,'11133222,11111222,99999999' 
WAVCIS,ioos:station:WAVCIS:CSI16:1,2009-12-03T07:00:00Z,29.4012,-89.0355,10.86,189.0,0.322,-99999.0,'11133222,11111222,99999999' 
WAVCIS,ioos:station:WAVCIS:CSI16:1,2009-12-03T08:00:00Z,29.4012,-89.0355,10.86,203.0,0.367,-99999.0,'11133222,11111222,99999999' 
WAVCIS,ioos:station:WAVCIS:CSI16:1,2009-12-03T09:00:00Z,29.4012,-89.0355,10.86,206.0,0.429,-99999.0,'11133222,11111222,99999999' 
WAVCIS,ioos:station:WAVCIS:CSI16:1,2009-12-03T10:00:00Z,29.4012,-89.0355,10.86,229.0,0.65,-99999.0,'11133222,11111222,99999999' 
WAVCIS,ioos:station:WAVCIS:CSI16:1,2009-12-03T11:00:00Z,29.4012,-89.0355,10.86,241.0,0.629,-99999.0,'11133222,11111222,99999999' 
WAVCIS,ioos:station:WAVCIS:CSI16:1,2009-12-03T12:00:00Z,29.4012,-89.0355,10.86,271.0,0.383,-99999.0,'11133222,11111222,99999999' 
WAVCIS,ioos:station:WAVCIS:CSI16:1,2009-12-03T13:00:00Z,29.4012,-89.0355,10.86,283.0,0.413,-99999.0,'11133222,11111222,99999999' 
WAVCIS,ioos:station:WAVCIS:CSI16:1,2009-12-03T14:00:00Z,29.4012,-89.0355,10.86,292.0,0.487,-99999.0,'11133222,11111222,99999999' 
WAVCIS,ioos:station:WAVCIS:CSI16:1,2009-12-03T15:00:00Z,29.4012,-89.0355,10.86,293.0,0.465,-99999.0,'11133222,11111222,99999999' 
WAVCIS,ioos:station:WAVCIS:CSI16:1,2009-12-03T16:00:00Z,29.4012,-89.0355,10.86,307.0,0.458,-99999.0,'11133222,11111222,99999999' 
WAVCIS,ioos:station:WAVCIS:CSI16:1,2009-12-03T17:00:00Z,29.4012,-89.0355,10.86,310.0,0.341,-99999.0,'11133222,11111222,99999999' 
WAVCIS,ioos:station:WAVCIS:CSI16:1,2009-12-03T18:00:00Z,29.4012,-89.0355,10.86,312.0,0.306,-99999.0,'11133222,11111222,99999999' 
WAVCIS,ioos:station:WAVCIS:CSI16:1,2009-12-03T19:00:00Z,29.4012,-89.0355,11.36,328.0,0.382,-99999.0,'11133222,11111222,99999999' 
WAVCIS,ioos:station:WAVCIS:CSI16:1,2009-12-03T20:00:00Z,29.4012,-89.0355,11.36,339.0,0.358,-99999.0,'11133222,11111222,99999999' 
WAVCIS,ioos:station:WAVCIS:CSI16:1,2009-12-03T21:00:00Z,29.4012,-89.0355,11.36,352.0,0.328,-99999.0,'11133222,11111222,99999999' 
WAVCIS,ioos:station:WAVCIS:CSI16:1,2009-12-03T22:00:00Z,29.4012,-89.0355,11.36,359.0,0.242,-99999.0,'11133222,11111222,99999999' 
WAVCIS,ioos:station:WAVCIS:CSI16:1,2009-12-03T23:00:00Z,29.4012,-89.0355,11.36,3.0,0.216,-99999.0,'11133222,11111222,99999999' 
WAVCIS,ioos:station:WAVCIS:CSI16:1,2009-12-04T00:00:00Z,29.4012,-89.0355,11.36,11.0,0.146,-99999.0,'11133222,11111222,99999999' 
WAVCIS,ioos:station:WAVCIS:CSI16:1,2009-12-04T01:00:00Z,29.4012,-89.0355,11.36,21.0,0.104,-99999.0,'11133222,11111222,99999999' 
WAVCIS,ioos:station:WAVCIS:CSI16:1,2009-12-04T02:00:00Z,29.4012,-89.0355,11.36,10.0,0.121,-99999.0,'11133222,11111222,99999999' 
WAVCIS,ioos:station:WAVCIS:CSI16:1,2009-12-04T03:00:00Z,29.4012,-89.0355,11.36,3.0,0.067,-99999.0,'11133222,11111222,99999999' 
WAVCIS,ioos:station:WAVCIS:CSI16:1,2009-12-04T04:00:00Z,29.4012,-89.0355,11.36,76.0,0.012,-99999.0,'11133222,11111222,99999999' 
WAVCIS,ioos:station:WAVCIS:CSI16:1,2009-12-04T05:00:00Z,29.4012,-89.0355,11.36,222.0,0.04,-99999.0,'11133222,11111222,99999999' 
WAVCIS,ioos:station:WAVCIS:CSI16:1,2009-12-04T06:00:00Z,29.4012,-89.0355,11.36,240.0,0.095,-99999.0,'11133222,11111222,99999999' 
WAVCIS,ioos:station:WAVCIS:CSI16:1,2009-12-04T07:00:00Z,29.4012,-89.0355,11.36,273.0,0.119,-99999.0,'11133222,11111222,99999999' 
WAVCIS,ioos:station:WAVCIS:CSI16:1,2009-12-04T08:00:00Z,29.4012,-89.0355,11.36,277.0,0.234,-99999.0,'11133222,11111222,99999999' 
WAVCIS,ioos:station:WAVCIS:CSI16:1,2009-12-04T09:00:00Z,29.4012,-89.0355,10.86,254.0,0.332,-99999.0,'11133222,11111222,99999999' 
WAVCIS,ioos:station:WAVCIS:CSI16:1,2009-12-04T10:00:00Z,29.4012,-89.0355,10.86,265.0,0.269,-99999.0,'11133222,11111222,99999999' 
WAVCIS,ioos:station:WAVCIS:CSI16:1,2009-12-04T11:00:00Z,29.4012,-89.0355,10.86,284.0,0.373,-99999.0,'11133222,11111222,99999999' 
WAVCIS,ioos:station:WAVCIS:CSI16:1,2009-12-04T12:00:00Z,29.4012,-89.0355,10.86,284.0,0.366,-99999.0,'11133222,11111222,99999999' 
WAVCIS,ioos:station:WAVCIS:CSI16:1,2009-12-04T13:00:00Z,29.4012,-89.0355,10.86,282.0,0.312,-99999.0,'11133222,11111222,99999999' 
WAVCIS,ioos:station:WAVCIS:CSI16:1,2009-12-04T14:00:00Z,29.4012,-89.0355,10.86,284.0,0.361,-99999.0,'11133222,11111222,99999999' 
WAVCIS,ioos:station:WAVCIS:CSI16:1,2009-12-04T15:00:00Z,29.4012,-89.0355,10.86,285.0,0.391,-99999.0,'11133222,11111222,99999999' 
WAVCIS,ioos:station:WAVCIS:CSI16:1,2009-12-04T16:00:00Z,29.4012,-89.0355,10.86,286.0,0.406,-99999.0,'11133222,11111222,99999999' 
WAVCIS,ioos:station:WAVCIS:CSI16:1,2009-12-04T17:00:00Z,29.4012,-89.0355,10.86,285.0,0.356,-99999.0,'11133222,11111222,99999999' 
WAVCIS,ioos:station:WAVCIS:CSI16:1,2009-12-04T18:00:00Z,29.4012,-89.0355,10.86,297.0,0.229,-99999.0,'11133222,11111222,99999999' 
WAVCIS,ioos:station:WAVCIS:CSI16:1,2009-12-04T19:00:00Z,29.4012,-89.0355,10.86,304.0,0.385,-99999.0,'11133222,11111222,99999999' 
WAVCIS,ioos:station:WAVCIS:CSI16:1,2009-12-04T20:00:00Z,29.4012,-89.0355,10.86,319.0,0.211,-99999.0,'11133222,11111222,99999999' 
WAVCIS,ioos:station:WAVCIS:CSI16:1,2009-12-04T21:00:00Z,29.4012,-89.0355,10.86,334.0,0.202,-99999.0,'11133222,11111222,99999999' 
WAVCIS,ioos:station:WAVCIS:CSI16:1,2009-12-04T22:00:00Z,29.4012,-89.0355,10.86,357.0,0.184,-99999.0,'11133222,11111222,99999999' 
WAVCIS,ioos:station:WAVCIS:CSI16:1,2009-12-04T23:00:00Z,29.4012,-89.0355,11.36,13.0,0.121,-99999.0,'11133222,11111222,99999999' 
WAVCIS,ioos:station:WAVCIS:CSI16:1,2009-12-05T00:00:00Z,29.4012,-89.0355,11.36,344.0,0.051,-99999.0,'11133222,11111222,99999999' 
WAVCIS,ioos:station:WAVCIS:CSI16:1,2009-12-05T01:00:00Z,29.4012,-89.0355,11.36,13.0,0.066,-99999.0,'11133222,11111222,99999999' 
WAVCIS,ioos:station:WAVCIS:CSI16:1,2009-12-05T02:00:00Z,29.4012,-89.0355,11.36,109.0,0.031,-99999.0,'11133222,11111222,99999999' 
WAVCIS,ioos:station:WAVCIS:CSI16:1,2009-12-05T03:00:00Z,29.4012,-89.0355,11.36,224.0,0.04,-99999.0,'11133222,11111222,99999999' 
WAVCIS,ioos:station:WAVCIS:CSI16:1,2009-12-05T04:00:00Z,29.4012,-89.0355,10.86,248.0,0.076,-99999.0,'11133222,11111222,99999999' 
WAVCIS,ioos:station:WAVCIS:CSI16:1,2009-12-05T05:00:00Z,29.4012,-89.0355,10.86,263.0,0.061,-99999.0,'11133222,11111222,99999999' 
WAVCIS,ioos:station:WAVCIS:CSI16:1,2009-12-05T06:00:00Z,29.4012,-89.0355,11.36,274.0,0.114,-99999.0,'11133222,11111222,99999999' 
WAVCIS,ioos:station:WAVCIS:CSI16:1,2009-12-05T07:00:00Z,29.4012,-89.0355,11.36,285.0,0.133,-99999.0,'11133222,11111222,99999999' 
WAVCIS,ioos:station:WAVCIS:CSI16:1,2009-12-05T08:00:00Z,29.4012,-89.0355,10.86,287.0,0.145,-99999.0,'11133222,11111222,99999999' 
WAVCIS,ioos:station:WAVCIS:CSI16:1,2009-12-05T09:00:00Z,29.4012,-89.0355,10.86,284.0,0.282,-99999.0,'11133222,11111222,99999999' 
WAVCIS,ioos:station:WAVCIS:CSI16:1,2009-12-05T10:00:00Z,29.4012,-89.0355,10.86,280.0,0.381,-99999.0,'11133222,11111222,99999999' 
WAVCIS,ioos:station:WAVCIS:CSI16:1,2009-12-05T11:00:00Z,29.4012,-89.0355,10.86,283.0,0.329,-99999.0,'11133222,11111222,99999999' 
WAVCIS,ioos:station:WAVCIS:CSI16:1,2009-12-05T12:00:00Z,29.4012,-89.0355,10.86,275.0,0.34,-99999.0,'11133222,11111222,99999999' 
WAVCIS,ioos:station:WAVCIS:CSI16:1,2009-12-05T13:00:00Z,29.4012,-89.0355,10.86,275.0,0.347,-99999.0,'11133222,11111222,99999999' 
WAVCIS,ioos:station:WAVCIS:CSI16:1,2009-12-05T14:00:00Z,29.4012,-89.0355,10.86,269.0,0.242,-99999.0,'11133222,11111222,99999999' 
WAVCIS,ioos:station:WAVCIS:CSI16:1,2009-12-05T15:00:00Z,29.4012,-89.0355,10.86,275.0,0.362,-99999.0,'11133222,11111222,99999999' 
WAVCIS,ioos:station:WAVCIS:CSI16:1,2009-12-05T16:00:00Z,29.4012,-89.0355,10.86,278.0,0.344,-99999.0,'11133222,11111222,99999999' 
WAVCIS,ioos:station:WAVCIS:CSI16:1,2009-12-05T17:00:00Z,29.4012,-89.0355,10.86,280.0,0.333,-99999.0,'11133222,11111222,99999999' 
WAVCIS,ioos:station:WAVCIS:CSI16:1,2009-12-05T18:00:00Z,29.4012,-89.0355,10.86,283.0,0.321,-99999.0,'11133222,11111222,99999999' 
WAVCIS,ioos:station:WAVCIS:CSI16:1,2009-12-05T19:00:00Z,29.4012,-89.0355,10.86,281.0,0.3,-99999.0,'11133222,11111222,99999999' 
WAVCIS,ioos:station:WAVCIS:CSI16:1,2009-12-05T20:00:00Z,29.4012,-89.0355,10.86,300.0,0.344,-99999.0,'11133222,11111222,99999999' 
WAVCIS,ioos:station:WAVCIS:CSI16:1,2009-12-05T21:00:00Z,29.4012,-89.0355,10.86,311.0,0.233,-99999.0,'11133222,11111222,99999999' 
WAVCIS,ioos:station:WAVCIS:CSI16:1,2009-12-05T22:00:00Z,29.4012,-89.0355,10.86,315.0,0.163,-99999.0,'11133222,11111222,99999999' 
WAVCIS,ioos:station:WAVCIS:CSI16:1,2009-12-05T23:00:00Z,29.4012,-89.0355,11.36,319.0,0.181,-99999.0,'11133222,11111222,99999999' 
WAVCIS,ioos:station:WAVCIS:CSI16:1,2009-12-06T00:00:00Z,29.4012,-89.0355,11.36,323.0,0.126,-99999.0,'11133222,11111222,99999999' 
WAVCIS,ioos:station:WAVCIS:CSI16:1,2009-12-06T01:00:00Z,29.4012,-89.0355,11.36,327.0,0.134,-99999.0,'11133222,11111222,99999999' 
WAVCIS,ioos:station:WAVCIS:CSI16:1,2009-12-06T02:00:00Z,29.4012,-89.0355,11.36,345.0,0.143,-99999.0,'11133222,11111222,99999999' 
WAVCIS,ioos:station:WAVCIS:CSI16:1,2009-12-06T03:00:00Z,29.4012,-89.0355,11.36,8.0,0.099,-99999.0,'11133222,11111222,99999999' 
WAVCIS,ioos:station:WAVCIS:CSI16:1,2009-12-06T04:00:00Z,29.4012,-89.0355,11.36,49.0,0.114,-99999.0,'11133222,11111222,99999999' 
WAVCIS,ioos:station:WAVCIS:CSI16:1,2009-12-06T05:00:00Z,29.4012,-89.0355,11.36,71.0,0.141,-99999.0,'11133222,11111222,99999999' 
WAVCIS,ioos:station:WAVCIS:CSI16:1,2009-12-06T06:00:00Z,29.4012,-89.0355,11.36,82.0,0.128,-99999.0,'11133222,11111222,99999999' 
WAVCIS,ioos:station:WAVCIS:CSI16:1,2009-12-06T07:00:00Z,29.4012,-89.0355,11.36,114.0,0.061,-99999.0,'11133222,11111222,99999999' 
WAVCIS,ioos:station:WAVCIS:CSI16:1,2009-12-06T08:00:00Z,29.4012,-89.0355,11.36,159.0,0.044,-99999.0,'11133222,11111222,99999999' 
WAVCIS,ioos:station:WAVCIS:CSI16:1,2009-12-06T09:00:00Z,29.4012,-89.0355,11.36,226.0,0.062,-99999.0,'11133222,11111222,99999999' 
WAVCIS,ioos:station:WAVCIS:CSI16:1,2009-12-06T10:00:00Z,29.4012,-89.0355,10.86,216.0,0.272,-99999.0,'11133222,11111222,99999999' 
WAVCIS,ioos:station:WAVCIS:CSI16:1,2009-12-06T11:00:00Z,29.4012,-89.0355,10.86,209.0,0.396,-99999.0,'11133222,11111222,99999999' 
WAVCIS,ioos:station:WAVCIS:CSI16:1,2009-12-06T12:00:00Z,29.4012,-89.0355,10.86,221.0,0.344,-99999.0,'11133222,11111222,99999999' 
WAVCIS,ioos:station:WAVCIS:CSI16:1,2009-12-06T13:00:00Z,29.4012,-89.0355,10.86,256.0,0.258,-99999.0,'11133222,11111222,99999999' 
WAVCIS,ioos:station:WAVCIS:CSI16:1,2009-12-06T14:00:00Z,29.4012,-89.0355,10.86,278.0,0.196,-99999.0,'11133222,11111222,99999999' 
WAVCIS,ioos:station:WAVCIS:CSI16:1,2009-12-06T15:00:00Z,29.4012,-89.0355,10.86,288.0,0.312,-99999.0,'11133222,11111222,99999999' 
WAVCIS,ioos:station:WAVCIS:CSI16:1,2009-12-06T16:00:00Z,29.4012,-89.0355,10.86,287.0,0.34,-99999.0,'11133222,11111222,99999999' 
WAVCIS,ioos:station:WAVCIS:CSI16:1,2009-12-06T17:00:00Z,29.4012,-89.0355,10.86,285.0,0.337,-99999.0,'11133222,11111222,99999999' 
WAVCIS,ioos:station:WAVCIS:CSI16:1,2009-12-06T18:00:00Z,29.4012,-89.0355,10.86,301.0,0.262,-99999.0,'11133222,11111222,99999999' 
WAVCIS,ioos:station:WAVCIS:CSI16:1,2009-12-06T19:00:00Z,29.4012,-89.0355,10.86,296.0,0.174,-99999.0,'11133222,11111222,99999999' 
WAVCIS,ioos:station:WAVCIS:CSI16:1,2009-12-06T20:00:00Z,29.4012,-89.0355,10.86,288.0,0.167,-99999.0,'11133222,11111222,99999999' 
WAVCIS,ioos:station:WAVCIS:CSI16:1,2009-12-06T21:00:00Z,29.4012,-89.0355,10.86,286.0,0.196,-99999.0,'11133222,11111222,99999999' 
WAVCIS,ioos:station:WAVCIS:CSI16:1,2009-12-06T22:00:00Z,29.4012,-89.0355,10.86,318.0,0.058,-99999.0,'11133222,11111222,99999999' 
WAVCIS,ioos:station:WAVCIS:CSI16:1,2009-12-06T23:00:00Z,29.4012,-89.0355,10.86,307.0,0.062,-99999.0,'11133222,11111222,99999999' 
WAVCIS,ioos:station:WAVCIS:CSI16:1,2009-12-07T00:00:00Z,29.4012,-89.0355,10.86,349.0,0.063,-99999.0,'11133222,11111222,99999999' 
WAVCIS,ioos:station:WAVCIS:CSI16:1,2009-12-07T01:00:00Z,29.4012,-89.0355,10.86,12.0,0.14,-99999.0,'11133222,11111222,99999999' 
WAVCIS,ioos:station:WAVCIS:CSI16:1,2009-12-07T02:00:00Z,29.4012,-89.0355,10.86,14.0,0.157,-99999.0,'11133222,11111222,99999999' 
WAVCIS,ioos:station:WAVCIS:CSI16:1,2009-12-07T03:00:00Z,29.4012,-89.0355,10.86,44.0,0.187,-99999.0,'11133222,11111222,99999999' 
WAVCIS,ioos:station:WAVCIS:CSI16:1,2009-12-07T04:00:00Z,29.4012,-89.0355,10.86,48.0,0.249,-99999.0,'11133222,11111222,99999999' 
WAVCIS,ioos:station:WAVCIS:CSI16:1,2009-12-07T05:00:00Z,29.4012,-89.0355,10.86,43.0,0.372,-99999.0,'11133222,11111222,99999999' 
WAVCIS,ioos:station:WAVCIS:CSI16:1,2009-12-07T06:00:00Z,29.4012,-89.0355,10.86,58.0,0.345,-99999.0,'11133222,11111222,99999999' 
WAVCIS,ioos:station:WAVCIS:CSI16:1,2009-12-07T07:00:00Z,29.4012,-89.0355,10.86,78.0,0.304,-99999.0,'11133222,11111222,99999999' 
WAVCIS,ioos:station:WAVCIS:CSI16:1,2009-12-07T08:00:00Z,29.4012,-89.0355,10.86,102.0,0.291,-99999.0,'11133222,11111222,99999999' 
WAVCIS,ioos:station:WAVCIS:CSI16:1,2009-12-07T09:00:00Z,29.4012,-89.0355,10.86,137.0,0.245,-99999.0,'11133222,11111222,99999999' 
WAVCIS,ioos:station:WAVCIS:CSI16:1,2009-12-07T10:00:00Z,29.4012,-89.0355,10.86,191.0,0.416,-99999.0,'11133222,11111222,99999999' 
WAVCIS,ioos:station:WAVCIS:CSI16:1,2009-12-07T11:00:00Z,29.4012,-89.0355,10.86,214.0,0.513,-99999.0,'11133222,11111222,99999999' 
WAVCIS,ioos:station:WAVCIS:CSI16:1,2009-12-07T12:00:00Z,29.4012,-89.0355,10.86,222.0,0.557,-99999.0,'11133222,11111222,99999999' 
WAVCIS,ioos:station:WAVCIS:CSI16:1,2009-12-07T13:00:00Z,29.4012,-89.0355,10.86,209.0,0.582,-99999.0,'11133222,11111222,99999999' 
WAVCIS,ioos:station:WAVCIS:CSI16:1,2009-12-07T14:00:00Z,29.4012,-89.0355,10.86,234.0,0.408,-99999.0,'11133222,11111222,99999999' 
WAVCIS,ioos:station:WAVCIS:CSI16:1,2009-12-07T15:00:00Z,29.4012,-89.0355,10.86,246.0,0.453,-99999.0,'11133222,11111222,99999999' 
WAVCIS,ioos:station:WAVCIS:CSI16:1,2009-12-07T16:00:00Z,29.4012,-89.0355,10.86,254.0,0.322,-99999.0,'11133222,11111222,99999999' 
WAVCIS,ioos:station:WAVCIS:CSI16:1,2009-12-07T17:00:00Z,29.4012,-89.0355,10.86,264.0,0.259,-99999.0,'11133222,11111222,99999999' 
WAVCIS,ioos:station:WAVCIS:CSI16:1,2009-12-07T18:00:00Z,29.4012,-89.0355,10.86,282.0,0.236,-99999.0,'11133222,11111222,99999999' 
WAVCIS,ioos:station:WAVCIS:CSI16:1,2009-12-07T19:00:00Z,29.4012,-89.0355,10.86,288.0,0.235,-99999.0,'11133222,11111222,99999999' 
WAVCIS,ioos:station:WAVCIS:CSI16:1,2009-12-07T20:00:00Z,29.4012,-89.0355,10.86,295.0,0.244,-99999.0,'11133222,11111222,99999999' 
WAVCIS,ioos:station:WAVCIS:CSI16:1,2009-12-07T21:00:00Z,29.4012,-89.0355,10.86,298.0,0.157,-99999.0,'11133222,11111222,99999999' 
WAVCIS,ioos:station:WAVCIS:CSI16:1,2009-12-07T22:00:00Z,29.4012,-89.0355,10.86,307.0,0.136,-99999.0,'11133222,11111222,99999999' 
WAVCIS,ioos:station:WAVCIS:CSI16:1,2009-12-07T23:00:00Z,29.4012,-89.0355,10.86,156.0,0.02,-99999.0,'11133222,11111222,99999999' 
WAVCIS,ioos:station:WAVCIS:CSI16:1,2009-12-08T00:00:00Z,29.4012,-89.0355,10.86,119.0,0.06,-99999.0,'11133222,11111222,99999999' 
WAVCIS,ioos:station:WAVCIS:CSI16:1,2009-12-08T01:00:00Z,29.4012,-89.0355,10.86,69.0,0.161,-99999.0,'11133222,11111222,99999999' 
WAVCIS,ioos:station:WAVCIS:CSI16:1,2009-12-08T02:00:00Z,29.4012,-89.0355,10.86,60.0,0.154,-99999.0,'11133222,11111222,99999999' 
WAVCIS,ioos:station:WAVCIS:CSI16:1,2009-12-08T03:00:00Z,29.4012,-89.0355,10.86,60.0,0.152,-99999.0,'11133222,11111222,99999999' 
WAVCIS,ioos:station:WAVCIS:CSI16:1,2009-12-08T04:00:00Z,29.4012,-89.0355,10.86,29.0,0.049,-99999.0,'11133222,11111222,99999999' 
WAVCIS,ioos:station:WAVCIS:CSI16:1,2009-12-08T05:00:00Z,29.4012,-89.0355,10.86,5.0,0.032,-99999.0,'11133222,11111222,99999999' 
WAVCIS,ioos:station:WAVCIS:CSI16:1,2009-12-08T06:00:00Z,29.4012,-89.0355,10.86,108.0,0.003,-99999.0,'11133222,11111222,99999999' 
WAVCIS,ioos:station:WAVCIS:CSI16:1,2009-12-08T07:00:00Z,29.4012,-89.0355,10.86,192.0,0.089,-99999.0,'11133222,11111222,99999999' 
WAVCIS,ioos:station:WAVCIS:CSI16:1,2009-12-08T08:00:00Z,29.4012,-89.0355,10.86,256.0,0.076,-99999.0,'11133222,11111222,99999999' 
WAVCIS,ioos:station:WAVCIS:CSI16:1,2009-12-08T09:00:00Z,29.4012,-89.0355,10.86,256.0,0.062,-99999.0,'11133222,11111222,99999999' 
WAVCIS,ioos:station:WAVCIS:CSI16:1,2009-12-08T10:00:00Z,29.4012,-89.0355,10.86,259.0,0.065,-99999.0,'11133222,11111222,99999999' 
WAVCIS,ioos:station:WAVCIS:CSI16:1,2009-12-08T11:00:00Z,29.4012,-89.0355,10.86,105.0,0.047,-99999.0,'11133222,11111222,99999999' 
WAVCIS,ioos:station:WAVCIS:CSI16:1,2009-12-08T12:00:00Z,29.4012,-89.0355,10.86,100.0,0.083,-99999.0,'11133222,11111222,99999999' 
WAVCIS,ioos:station:WAVCIS:CSI16:1,2009-12-08T13:00:00Z,29.4012,-89.0355,10.86,140.0,0.171,-99999.0,'11133222,11111222,99999999' 
WAVCIS,ioos:station:WAVCIS:CSI16:1,2009-12-08T14:00:00Z,29.4012,-89.0355,10.86,162.0,0.236,-99999.0,'11133222,11111222,99999999' 